Regional Weather Roundup
Issued by NWS

Home | Current Version | Previous Version | Text Only | Print | Product List | Glossary Off
Versions: 1 2 3 4 5 6 7 8 9 10 11 12 13 14 15 16 17 18 19 20 21 22 23 24 25 26 27 28 29 30 31 32 33 34 35 36 37 38 39 40 41 42 43 44 45 46 47 48 49 50

000
ASUS43 KLOT 261010
RWRIL

ILLINOIS REGIONAL WEATHER ROUNDUP
NATIONAL WEATHER SERVICE CHICAGO/ROMEOVILLE IL
400 AM CST FRI DEC 26 2014

NOTE: "FAIR" INDICATES FEW OR NO CLOUDS BELOW 12,000 FEET WITH NO
SIGNIFICANT WEATHER AND/OR OBSTRUCTIONS TO VISIBILITY.

* THESE STATIONS ARE NOT UNDER NWS QUALITY CONTROL. THEY ALSO MAY NOT
  REPORT WEATHER SUCH AS PRECIPITATION OR FOG.

ILZ001-002-007-009-015-016-024-261100-
NORTHWEST ILLINOIS

CITY           SKY/WX    TMP DP  RH WIND       PRES   REMARKS
MOLINE         MOCLDY    42  33  70 S15G29    29.91R
STERLING*      MOCLDY    39  34  81 CALM      29.95R
SAVANNA*       CLOUDY    41  34  77 S8        29.91S
$$

ILZ003-004-008-010-011-017-018-261100-
NORTH CENTRAL ILLINOIS

CITY           SKY/WX    TMP DP  RH WIND       PRES   REMARKS
ROCKFORD       CLOUDY    38  34  85 S13       29.95F WCI  30
FREEPORT*      CLOUDY    38  35  89 S12       29.93S WCI  30
ROCHELLE*      MOCLDY    35  33  94 S7        29.96R WCI  29
DE KALB*       MOCLDY    33  31  95 S13       29.97S WCI  23
PERU*          CLEAR     38  34  87 S18       29.97S WCI  28
$$

ILZ005-006-012>014-019>023-261100-
NORTHEAST ILLINOIS

CITY           SKY/WX    TMP DP  RH WIND       PRES   REMARKS
CHICAGO-OHARE  FAIR      37  32  82 S10       29.97F WCI  30
CHICAGO-MIDWAY PTCLDY    38  32  79 S10       30.00S WCI  31
AURORA         PTCLDY    34  30  85 S8        29.98F WCI  27
LANSING*       CLEAR     35  32  88 S12       30.02S WCI  27
JOLIET*        CLEAR     37  32  84 S9G18     30.01S WCI  30
WAUKEGAN       MOCLDY    39  33  79 SW15      29.95F WCI  31
DUPAGE AIRPORT PTCLDY    34  31  88 S9        29.97F WCI  27
KANKAKEE*      CLEAR     35  32  90 S16       30.04R WCI  25
WHEELING       MOCLDY    37  32  82 S12       29.99F WCI  29
MORRIS*        PTCLDY    36  33  90 S9        29.99S WCI  29
ROMEOVILLE*    PTCLDY    34  32  94 S9        30.00S WCI  26
NORTHERLY ISL    N/A     38  32  79 S9          N/A  WCI  31
$$

LMZ740>746-261100-
SOUTHERN LAKE MICHIGAN

STATION/POSITION SKY/WX   TEMP    WIND        PRES    VSBY  WAVE
                          AIR SEA DIR/SP/G                  HT/PER
                          (F)     (DEG/KT/KT) (MB)    (MI)  (FT/S)
WAUKEGAN HARBOR            40                   N/A
HARRISON CRIB              38     200/ 25/ 29   N/A
BURNHAM HARBOR             38     190/  9/ 15   N/A
CALUMET HARBOR             37     180/  9/ 13 1014.7F
MICHIGAN CITY              37     150/ 17/ 22   N/A
$$

ILZ025>027-034>036-040-047-049-050-058-095>099-261100-
WEST-CENTRAL ILLINOIS

CITY           SKY/WX    TMP DP  RH WIND       PRES   REMARKS
QUINCY         CLEAR     42  34  73 S15G21    29.95F
GALESBURG*     PTCLDY    38  35  88 S9G16     29.94S WCI  31
MACOMB*        CLEAR     38  35  88 S15G22    29.98S WCI  30
JACKSONVILLE*  PTCLDY    42  36  79 S13G18    30.01S
PITTSFIELD*    CLEAR     38  35  87 SE8       30.00F WCI  32
$$

ILZ028>032-037-038-041>044-048-051>054-059>061-261100-
CENTRAL ILLINOIS

CITY           SKY/WX    TMP DP  RH WIND       PRES   REMARKS
PONTIAC        CLEAR     37  34  88 S15G22    30.02R WCI  28
BLOOMINGTON    CLEAR     35  33  92 S15       30.03S WCI  25
DECATUR        CLEAR     37  32  82 S15       30.06S WCI  28
PEORIA         CLEAR     38  33  82 S13       30.00R WCI  30
LACON*         CLEAR     39  33  78 S14G22    29.98S WCI  31
LINCOLN*       CLEAR     39  35  85 S14       30.03F WCI  30
SPRINGFIELD    CLEAR     40  34  79 S15       30.03F
TAYLORVILLE    CLEAR     37  32  81 S14       30.05F WCI  29
$$

ILZ033-039-045-046-055>057-062-063-261100-
EAST-CENTRAL ILLINOIS

CITY           SKY/WX    TMP DP  RH WIND       PRES   REMARKS
CHAMPAIGN      CLEAR     36  32  85 S17       30.07S WCI  26
DANVILLE*      CLEAR     37  33  85 S15       30.06S WCI  28
RANTOUL*       CLEAR     37  34  87 S12       30.06S WCI  30
MATTOON        CLEAR     38  34  85 S12       30.08F WCI  30
PARIS*         CLEAR     38  34  88 S13       30.10F WCI  30
$$

ILZ079-100>102-261100-
SOUTHWEST ILLINOIS

CITY           SKY/WX    TMP DP  RH WIND       PRES   REMARKS
ALTON          CLEAR     37  34  90 SE9       30.06F WCI  30
BELLEVILLE     CLEAR     39  37  91 S10       30.08S WCI  32
CAHOKIA*       CLEAR     36  33  89 SE8       30.07S WCI  30
SPARTA*        CLEAR     40  34  78 S10G16    30.11S
$$

ILZ064>066-069>071-074>076-080>082-084>086-088>090-092>094-261100-
SOUTH-CENTRAL ILLINOIS

CITY           SKY/WX    TMP DP  RH WIND       PRES   REMARKS
CARBONDALE     CLEAR     42  34  73 S14       30.14R
CAIRO*         CLEAR     42  35  77 S8        30.17R
EFFINGHAM*     CLEAR     37  31  80 SE6       30.13S WCI  32
MARION         CLEAR     41  36  81 S12       30.15S
MT. VERNON     CLEAR     37  30  75 S6        30.13F WCI  33
CENTRALIA*     CLEAR     38  33  81 S10       30.11F WCI  31
SALEM*         CLEAR     40  35  80 S7        30.11F
METROPOLIS*    CLEAR     38  35  88 SE3       30.18R
$$

ILZ067-068-072-073-078-083-087-091-261100-
SOUTHEAST ILLINOIS

CITY           SKY/WX    TMP DP  RH WIND       PRES   REMARKS
LAWRENCEVILLE  CLEAR     35  32  88 S8        30.17F WCI  29
FLORA*         CLEAR     36  33  88 S9        30.14S WCI  29
FAIRFIELD*     CLEAR     37  34  86 S5        30.14S WCI  34
HARRISBURG*    CLEAR     40  34  79 S8        30.18S
ROBINSON*      CLEAR     36  33  89 S8        30.16F WCI  29
CARMI*         CLEAR     33  33  99 SE6       30.16F WCI  28
$$

ABBREVIATIONS USED IN REMARKS
   TC - TEMPERATURE IN CELSIUS
  WCI - WIND CHILL INDEX
   HX - HEAT INDEX
  VSB - VISIBILITY
$$




USA.gov is the U.S. government's official web portal to all federal, state and local government web resources and services.